sat.trackr.live / text

‹ back to catalog

KUIPER-00013

NORAD 63729 · 2025-088F

PAYLOAD ACTIVE UNKNOWN

§ Identity

Operator
Country
US
Launch date
2025-04-28
Launch site
AFETR
Launch vehicle
Mass (kg)
RCS (m²)

External: N2YO · Heavens-Above · Gunter

§ Orbital elements

Epoch: 2026-05-25T05:25:07.829184Z

Period
97.30 min
Inclination
51.9005°
Eccentricity
0.0000872
Mean motion
14.79931574 rev/d
Perigee alt
628.9 km
Apogee alt
630.2 km
Semi-major
7,007.7 km
B*
1.4682e-4
RAAN
129.6635°
Arg perigee
5.3618°
Mean anomaly
354.7354°
Rev number
5,890

§ Raw data

KUIPER-000131 63729U 25088F   26145.22578506  .00000898  00000+0  14682-3 0  99912 63729  51.9005 129.6635 0000872   5.3618 354.7354 14.79931574 58904

JSON: /api/v1/satellites/63729 · /tle

For live sub-satellite position, see the globe view (requires WebGL).

§ Visibility from observer

Set your observer location to see the next 7 days of passes ≥ 10°. The values pass through the URL so the page stays shareable.

No JS? Fill the form by hand. The geolocation button needs JavaScript.